Wind_Speed
11 11 12 12 13 14 14 14 13 13 13 14 15 15 16 16 16 17 16 17 17 17 18 19 19 18 18 19 19 18 18 18 18 19 19 21 21 22
13 13 13 13 14 15 15 15 15 15 15 15 15 16 17 18 18 18 19 19 18 19 19 19 19 20 20 20 19 19 19 20 20 20 20 21 22 23
14 14 15 15 16 16 17 16 16 16 16 17 18 17 18 19 19 20 20 20 19 20 20 21 21 21 21 21 21 21 21 21 21 21 22 22 22 23
16 16 16 16 17 18 18 18 18 18 18 19 19 20 20 20 20 21 21 21 21 21 22 22 22 22 22 22 22 22 22 22 22 23 23 24 24 24
18 18 18 18 19 19 20 20 20 20 20 20 20 21 21 21 22 23 22 23 23 23 22 23 23 23 23 23 24 24 24 23 24 24 25 25 25 25
19 20 20 20 21 21 22 22 22 22 22 22 22 22 22 22 23 23 24 24 25 24 23 24 24 25 25 25 25 25 24 24 25 25 26 26 26 26
21 22 22 22 22 23 24 24 24 24 24 24 24 24 24 24 25 25 26 26 27 26 26 26 26 25 25 25 26 26 25 26 26 27 27 26 26 26
23 23 23 23 23 24 25 26 26 25 25 25 25 25 26 26 26 27 28 28 28 28 27 28 28 27 25 26 26 26 26 26 27 27 27 26 26 26
24 24 24 24 25 25 26 26 26 26 26 27 27 27 28 28 28 28 29 30 29 29 28 28 27 27 27 27 27 27 27 27 27 27 27 27 26 26
26 25 26 26 26 27 28 28 28 28 28 28 29 29 30 30 30 30 30 30 30 30 30 29 27 27 27 28 29 29 29 29 29 28 28 28 28 28
27 27 28 28 28 29 29 30 30 30 30 30 30 30 30 31 32 32 32 32 31 30 30 30 29 29 29 29 30 30 30 30 29 29 30 30 29 28
29 29 29 29 29 30 31 31 31 30 30 30 31 31 32 32 33 33 33 33 32 31 31 30 30 30 30 30 30 30 30 30 30 30 30 31 30 29
30 30 30 30 30 31 32 33 33 32 32 32 32 33 33 33 33 34 33 34 34 33 32 31 31 31 31 31 31 31 31 30 30 31 31 31 30 29
31 31 32 32 32 32 33 34 34 34 34 34 34 34 35 35 35 35 35 35 35 34 33 33 32 32 32 32 32 32 31 30 31 31 31 31 30 28
32 33 34 34 34 34 35 35 35 35 35 35 35 35 35 35 36 35 35 35 35 34 34 33 33 33 33 32 32 32 31 30 30 30 31 30 29 28
34 35 35 35 36 36 36 37 36 36 36 36 36 36 36 36 36 36 35 35 34 34 33 33 33 33 33 33 32 32 31 30 29 30 30 30 30 29
35 35 35 35 36 36 36 36 36 36 37 36 36 36 36 36 36 35 35 35 34 33 32 33 33 33 33 33 33 32 32 31 31 31 31 31 30 29
35 35 35 35 36 36 37 36 36 35 35 36 36 36 36 35 34 34 33 33 33 32 32 32 33 33 33 33 33 33 33 32 32 32 31 31 29 28
36 36 36 36 36 36 36 36 35 35 35 35 35 34 34 33 32 32 32 32 33 32 32 32 33 33 33 32 32 33 33 32 31 31 31 29 28 27
38 38 37 36 36 36 36 36 35 36 36 35 34 33 33 32 32 32 32 32 32 32 32 32 32 31 31 31 31 31 31 31 30 30 30 29 27 26
39 38 37 37 37 36 36 37 37 36 36 35 33 32 32 31 31 32 32 32 31 31 30 30 30 30 30 30 30 30 30 30 30 29 28 26 25 24
41 40 39 39 38 37 37 37 36 35 34 33 32 31 31 31 32 32 31 31 30 30 29 29 29 30 30 29 29 28 28 28 28 26 25 25 25 24
41 41 40 39 38 37 37 37 36 34 33 33 33 32 32 32 32 31 31 30 29 29 29 29 29 29 28 28 28 27 26 26 26 25 24 25 25 24
Wind_Direction
301 303 304 306 308 310 313 314 311 309 309 309 307 307 306 306 307 307 307 309 309 308 307 307 306 306 306 306 305 303 303 303 302 300 297 294 292 290
298 298 300 302 304 306 308 310 308 309 309 308 307 305 305 307 307 307 307 308 309 307 307 306 306 305 304 305 304 302 301 302 302 301 299 298 295 293
299 297 296 298 301 302 304 306 304 304 305 306 306 307 307 307 307 309 308 308 308 306 305 305 305 305 305 304 303 300 299 300 301 301 301 300 297 295
298 297 296 297 299 298 299 302 301 300 301 303 304 305 306 307 307 307 307 307 307 307 306 305 305 305 304 303 303 301 299 299 299 301 300 299 297 294
297 296 296 297 297 297 297 299 299 298 298 300 302 301 302 303 303 304 305 306 306 307 305 302 302 303 303 303 303 300 298 297 298 299 299 298 296 293
296 295 296 296 296 295 295 297 297 296 296 298 300 300 301 302 301 301 302 303 304 305 304 303 302 302 301 302 303 301 299 298 298 298 297 297 295 293
295 294 294 295 295 295 295 295 296 294 295 296 298 299 299 300 300 300 300 301 302 302 302 302 302 302 302 302 303 302 301 300 299 298 299 298 295 293
295 294 295 295 295 295 295 295 295 293 293 295 297 298 300 300 300 300 301 301 302 302 302 302 300 300 302 303 304 304 302 301 300 299 298 297 297 295
295 295 295 295 294 294 294 295 295 294 293 294 295 296 297 298 298 299 300 301 302 302 301 302 300 299 299 301 303 305 303 302 301 299 297 295 295 295
296 294 294 293 293 293 293 293 292 293 293 293 294 295 296 297 298 299 299 299 300 300 299 300 300 299 300 300 301 303 303 301 301 300 297 296 295 295
295 295 294 292 291 291 292 292 291 291 290 291 294 294 294 296 298 298 299 299 298 299 299 299 299 299 299 299 300 301 302 301 299 298 298 297 295 294
295 295 294 292 291 291 291 291 291 290 289 290 292 293 293 294 296 297 298 299 298 297 297 297 297 297 297 297 298 299 301 300 299 298 298 298 295 293
294 293 292 291 290 290 290 290 289 288 288 289 290 291 293 293 294 295 297 297 296 296 295 294 295 295 296 296 296 297 299 299 299 300 300 299 296 292
293 292 292 292 291 290 290 289 289 289 288 288 289 290 291 291 292 293 294 295 294 295 294 294 294 294 295 296 296 297 298 298 299 299 299 297 295 291
292 292 292 292 292 292 291 291 290 289 289 289 288 289 289 289 290 292 293 293 293 294 295 295 295 295 295 295 296 297 297 296 297 298 297 297 294 291
292 292 292 291 291 291 291 291 290 290 290 289 288 287 287 288 289 291 292 292 292 292 293 293 292 292 293 293 294 297 297 295 295 296 296 296 293 290
293 292 292 291 291 290 291 291 291 291 290 289 288 288 288 288 289 289 291 291 291 291 291 292 291 291 292 293 294 295 294 294 294 294 295 295 294 291
292 293 293 292 292 292 292 291 291 291 291 290 288 288 287 287 287 289 290 290 291 291 291 292 292 291 291 291 293 294 293 293 292 291 293 294 293 292
291 291 292 292 292 292 293 292 292 292 291 291 290 289 288 288 287 288 289 290 290 289 290 291 292 293 291 292 293 294 293 293 291 291 291 291 291 291
290 292 292 291 292 291 291 291 291 291 291 291 290 288 288 287 286 287 288 290 289 289 289 290 292 293 294 294 293 293 293 293 292 291 290 289 289 289
290 290 290 291 290 289 289 289 290 291 290 289 288 287 287 286 286 288 288 289 289 288 290 291 292 293 294 295 295 295 295 294 292 291 290 289 289 288
289 290 289 289 288 287 289 289 290 289 289 289 288 286 286 286 287 287 288 288 289 288 291 292 292 292 293 294 296 296 295 294 294 293 292 291 290 289
288 288 289 290 288 286 287 288 288 288 288 288 288 288 287 287 287 287 289 288 288 289 290 291 291 291 292 293 295 296 296 295 294 292 291 292 291 290
Height
5876 5876 5875 5874 5874 5872 5871 5870 5869 5868 5867 5866 5865 5863 5862 5861 5859 5858 5856 5855 5853 5851 5850 5848 5846 5844 5842 5840 5838 5836 5834 5832 5830 5828 5826 5825 5823 5822
5873 5873 5872 5871 5871 5869 5868 5867 5866 5865 5863 5863 5861 5860 5858 5857 5855 5854 5852 5850 5848 5846 5845 5843 5841 5839 5837 5834 5832 5830 5828 5827 5824 5823 5821 5819 5817 5816
5870 5869 5868 5868 5867 5866 5864 5863 5862 5860 5859 5858 5857 5856 5854 5852 5850 5849 5847 5845 5843 5841 5839 5837 5835 5833 5831 5829 5827 5825 5823 5821 5819 5817 5815 5813 5811 5809
5866 5865 5865 5864 5863 5861 5860 5859 5857 5856 5855 5854 5853 5851 5849 5848 5846 5843 5842 5840 5837 5835 5833 5831 5829 5827 5825 5823 5821 5819 5817 5815 5813 5810 5808 5806 5804 5802
5862 5861 5860 5859 5858 5857 5856 5854 5853 5851 5850 5849 5848 5846 5844 5842 5840 5838 5836 5834 5832 5829 5827 5826 5824 5821 5819 5817 5815 5813 5810 5808 5806 5804 5801 5799 5797 5795
5858 5856 5855 5854 5853 5852 5851 5849 5847 5846 5844 5843 5842 5840 5838 5836 5834 5832 5830 5828 5826 5824 5821 5819 5817 5815 5813 5811 5809 5806 5804 5801 5799 5797 5794 5792 5790 5788
5853 5851 5850 5849 5847 5846 5845 5843 5842 5840 5838 5837 5836 5834 5832 5830 5828 5826 5824 5822 5819 5817 5815 5813 5810 5808 5806 5804 5801 5799 5797 5794 5792 5789 5787 5784 5782 5780
5848 5846 5845 5843 5842 5840 5839 5837 5835 5834 5832 5831 5829 5827 5825 5823 5821 5819 5817 5815 5812 5811 5808 5805 5803 5801 5799 5797 5794 5792 5789 5787 5784 5782 5779 5777 5775 5772
5842 5840 5839 5837 5836 5834 5832 5831 5829 5827 5826 5824 5822 5820 5818 5816 5814 5812 5810 5807 5805 5803 5800 5798 5796 5794 5792 5790 5787 5785 5782 5779 5777 5774 5771 5769 5767 5765
5835 5834 5832 5831 5829 5827 5826 5824 5822 5820 5818 5816 5815 5813 5810 5808 5806 5804 5802 5800 5797 5795 5792 5791 5788 5787 5785 5782 5779 5777 5774 5771 5769 5766 5764 5761 5759 5757
5829 5827 5825 5824 5822 5820 5818 5816 5815 5813 5810 5808 5807 5805 5802 5800 5798 5796 5794 5791 5789 5787 5785 5783 5781 5779 5777 5774 5771 5769 5766 5763 5761 5758 5756 5753 5751 5749
5821 5819 5817 5816 5814 5812 5810 5808 5806 5804 5802 5800 5799 5797 5794 5792 5790 5788 5785 5783 5781 5780 5777 5774 5772 5770 5769 5766 5763 5760 5758 5755 5752 5750 5747 5745 5742 5740
5814 5812 5810 5807 5805 5803 5801 5799 5797 5795 5793 5791 5790 5788 5786 5783 5781 5779 5777 5775 5772 5770 5768 5766 5763 5761 5759 5757 5755 5752 5749 5746 5744 5741 5738 5736 5733 5731
5806 5804 5801 5799 5797 5794 5792 5790 5788 5786 5783 5782 5780 5778 5776 5774 5772 5770 5768 5765 5763 5761 5758 5756 5754 5752 5750 5747 5746 5743 5741 5738 5735 5732 5729 5726 5723 5721
5797 5795 5792 5790 5787 5785 5783 5780 5778 5776 5774 5772 5770 5768 5766 5764 5762 5761 5759 5756 5754 5751 5749 5746 5744 5742 5740 5738 5736 5734 5731 5729 5726 5723 5720 5717 5714 5713
5787 5785 5783 5780 5778 5775 5773 5771 5768 5766 5763 5761 5760 5758 5756 5754 5752 5751 5749 5747 5745 5742 5740 5737 5735 5733 5731 5729 5726 5724 5722 5719 5717 5715 5712 5709 5706 5704
5777 5775 5772 5770 5768 5765 5763 5760 5758 5755 5753 5751 5749 5747 5746 5744 5742 5740 5738 5736 5735 5733 5731 5728 5726 5723 5721 5719 5717 5715 5712 5710 5708 5705 5703 5700 5697 5695
5767 5765 5763 5760 5758 5755 5752 5749 5747 5745 5742 5740 5738 5736 5735 5733 5731 5730 5728 5726 5725 5723 5721 5719 5716 5714 5712 5709 5707 5705 5703 5701 5698 5696 5693 5691 5689 5687
5757 5755 5752 5750 5747 5745 5742 5739 5737 5735 5732 5730 5728 5726 5724 5723 5721 5720 5718 5716 5715 5713 5711 5709 5706 5704 5702 5700 5698 5695 5693 5691 5689 5687 5684 5683 5681 5679
5747 5744 5742 5739 5737 5734 5732 5729 5726 5724 5722 5720 5718 5716 5714 5713 5711 5710 5708 5706 5704 5703 5701 5699 5697 5694 5692 5690 5688 5686 5683 5681 5679 5677 5675 5673 5672 5670
5736 5734 5731 5728 5726 5723 5721 5719 5716 5714 5712 5709 5708 5706 5704 5703 5702 5700 5698 5696 5694 5692 5691 5689 5687 5685 5683 5681 5679 5677 5675 5672 5670 5668 5666 5665 5664 5662
5724 5722 5720 5717 5714 5712 5711 5708 5706 5703 5701 5699 5697 5696 5695 5693 5692 5690 5688 5686 5684 5683 5681 5679 5677 5676 5673 5672 5670 5668 5666 5664 5661 5659 5658 5656 5655 5654
5712 5710 5708 5706 5704 5701 5700 5698 5695 5694 5692 5689 5687 5686 5684 5683 5681 5680 5678 5677 5675 5673 5671 5670 5668 5666 5664 5663 5661 5659 5658 5655 5653 5652 5651 5649 5647 5646